Content
SEND FEEDBACK

Daily
Averages
Monthly
Summary
United States of America

PACIFIC GROVE, CALIFORNIA


Home > North America > United States > California
Elevation: 331 feet     Latitude: 36 36N     Longitude: 121 55W

WEATHER
 
SELECT A DAY
Number of Records: 195,283;   Date Range: 7/1/96 - 10/20/14
 
SHARE

PRINT THIS DATA

[ ← Previous Day ]
WEATHER ALMANAC - APRIL 26, 2013
[ Next Day → ]
[ °C ]   °F
Weather ElementAverageHighLow
Temperature51.3 °F57 °F (12:54 pm)44.1 °F (5:54 am)
Dewpoint46.1 °F48.2 °F (8:25 am)41 °F (6:21 am)
Humidity82.8 %93 % (4:05 am)69 % (12:54 pm)
Barometer30.23 in30.28 in (9:54 am)30.14 in (1:24 am)
Wind Speed5.1 mph11.5 mph (2:54 pm)
Wind Gust18.4 mph (2:54 pm)
Weather ElementAverage
Visibility8.6 mi
Wind DirectionSSE (155.9 °)

Weather ElementTotal
Precipitation---
Heating Degree Days14.5 (Base 65)
Growing Degree Days0.5 (Base 50)
Averaged from 32 records on April 26, 2013
WEATHER CONDITIONS BREAKOUT
WIND DIRECTION BREAKOUT
WEATHER BY HOUR - APRIL 26, 2013
[ °C ]   °F
Local TimeTemperatureDewpointHumidityBarometerVisibilityWind DirectionWind SpeedGust SpeedPrecipitationEventsConditions
1:24 AM51.8 °F46.4 °F82 %30.14 in10.0 miSouth (190°)4.6 mphScattered Clouds
1:54 AM51.1 °F46.9 °F86 %30.18 in10.0 miSSE (150°)4.6 mphClear
2:54 AM48.9 °F45.0 °F86 %30.17 in10.0 miCalmClear
3:54 AM48.0 °F44.1 °F86 %30.19 in10.0 miCalmScattered Clouds
4:05 AM48.2 °F46.4 °F93 %30.15 in10.0 miCalmMostly Cloudy
4:13 AM46.4 °F42.8 °F87 %30.15 in10.0 miCalmScattered Clouds
4:54 AM45.0 °F43.0 °F93 %30.19 in10.0 miEast (80°)3.5 mphPartly Cloudy
5:54 AM44.1 °F42.1 °F93 %30.21 in10.0 miCalmClear
6:09 AM44.6 °F42.8 °F93 %30.17 in10.0 miCalmMostly Cloudy
6:21 AM44.6 °F41.0 °F87 %30.18 in2.0 miCalmMostly Cloudy
6:54 AM46.0 °F43.0 °F89 %30.24 in2.0 miEast (90°)3.5 mphOvercast
7:54 AM50.0 °F46.0 °F86 %30.26 in2.0 miEast (80°)3.5 mphOvercast
8:01 AM50.0 °F46.4 °F87 %30.22 in3.0 miENE (60°)3.5 mphOvercast
8:25 AM51.8 °F48.2 °F88 %30.23 in3.0 miEast (90°)3.5 mphOvercast
8:54 AM52.0 °F48.0 °F86 %30.27 in3.0 miCalmOvercast
9:54 AM54.0 °F48.0 °F80 %30.28 in9.0 miCalmOvercast
10:52 AM55.4 °F48.2 °F77 %30.24 in10.0 miNW (310°)6.9 mphScattered Clouds
10:54 AM55.9 °F48.0 °F75 %30.28 in10.0 miWNW (300°)4.6 mphPartly Cloudy
11:54 AM55.9 °F48.0 °F75 %30.28 in10.0 miWest (270°)9.2 mphScattered Clouds
12:54 PM57.0 °F46.9 °F69 %30.27 in10.0 miNW (310°)9.2 mphClear
1:54 PM57.0 °F48.0 °F72 %30.26 in10.0 miWNW (290°)9.2 mphClear
2:54 PM57.0 °F48.0 °F72 %30.25 in10.0 miNW (310°)11.5 mph18.4 mphClear
3:54 PM57.0 °F46.9 °F69 %30.25 in10.0 miWest (280°)11.5 mphClear
4:54 PM55.0 °F46.9 °F74 %30.25 in10.0 miWest (280°)11.5 mphPartly Cloudy
5:54 PM54.0 °F46.9 °F77 %30.25 in10.0 miWest (280°)9.2 mphScattered Clouds
6:01 PM53.6 °F46.4 °F77 %30.22 in10.0 miWest (270°)10.4 mphMostly Cloudy
6:50 PM51.8 °F46.4 °F82 %30.22 in10.0 miWSW (240°)5.8 mphOvercast
6:54 PM52.0 °F46.9 °F83 %30.26 in10.0 miSW (230°)8.1 mphOvercast
7:54 PM51.1 °F46.9 °F86 %30.27 in10.0 miSW (220°)8.1 mphOvercast
8:54 PM51.1 °F46.9 °F86 %30.28 in10.0 miSW (230°)6.9 mphOvercast
9:54 PM51.1 °F46.9 °F86 %30.28 in10.0 miSW (230°)8.1 mphOvercast
10:54 PM51.1 °F46.9 °F86 %30.28 in10.0 miSSW (200°)5.8 mphOvercast
Hourly data recorded from KMRY, located miles away from Pacific Grove, California







STORIES FROM OUR PARTNERS